DW4360 Weather Reports


Display with metric or nautical units.
time (UTC)temp
F
wind
direction
speed
MPH
gust
MPH
rain 1hr
in
rain 24hr
in
rain mn
in
humidity
%
barometer
mb
20260502215927 71 36 0.0 0.0 0.00 0.00 0.00 57 1012.0
20260502214926 72 338 4.0 0.0 0.00 0.00 0.00 56 1012.0
20260502213925 72 328 5.0 0.0 0.00 0.00 0.00 55 1012.1
20260502212924 72 324 5.0 0.0 0.00 0.00 0.00 57 1012.3
20260502205921 69 314 3.0 0.0 0.00 0.00 0.00 60 1012.7
20260502204920 68 227 0.0 0.0 0.00 0.00 0.00 62 1013.1
20260502203919 68 243 0.0 0.0 0.00 0.00 0.00 64 1013.3
20260502202918 67 321 3.0 0.0 0.00 0.00 0.00 64 1013.4
20260502201917 66 128 0.0 0.0 0.00 0.00 0.00 64 1013.5
20260502200916 66 140 0.0 0.0 0.00 0.00 0.00 64 1013.6
20260502195915 66 319 0.0 0.0 0.00 0.00 0.00 65 1013.6
20260502194914 65 321 0.0 0.0 0.00 0.00 0.00 65 1013.7
20260502193913 65 316 3.0 0.0 0.00 0.00 0.00 67 1013.8
20260502192912 64 338 4.0 0.0 0.00 0.00 0.00 67 1014.0
20260502191911 63 322 0.0 0.0 0.00 0.00 0.00 69 1014.0
20260502185909 62 321 3.0 0.0 0.00 0.00 0.00 72 1014.4
20260502184908 61 322 0.0 0.0 0.00 0.00 0.00 73 1014.4
20260502183906 60 86 0.0 0.0 0.00 0.00 0.00 75 1014.3
20260502182906 58 316 4.0 0.0 0.00 0.00 0.00 77 1014.4
20260502181905 58 321 0.0 0.0 0.00 0.00 0.00 79 1014.5
20260502180903 57 324 0.0 0.0 0.00 0.00 0.00 79 1014.7
20260502163854 55 308 0.0 0.0 0.00 0.00 0.00 81 1015.0
20260502162853 55 308 2.0 0.0 0.00 0.00 0.00 81 1015.0
20260502161853 55 317 0.0 0.0 0.00 0.00 0.00 82 1015.1
20260502160851 54 316 0.0 0.0 0.00 0.00 0.00 83 1015.0
20260502151846 53 315 0.0 0.0 0.00 0.00 0.00 83 1015.1
20260502150846 53 309 0.0 0.0 0.00 0.00 0.00 83 1015.2
20260502122829 52 313 0.0 0.0 0.00 0.00 0.00 84 1014.9
20260502121828 52 315 0.0 0.0 0.00 0.00 0.00 84 1014.8
20260502120827 52 346 0.0 0.0 0.00 0.00 0.00 84 1014.8
20260502115826 52 302 0.0 0.0 0.00 0.00 0.00 84 1014.8
20260502112823 52 338 0.0 0.0 0.00 0.00 0.00 84 1015.0
20260502111822 52 321 2.0 0.0 0.00 0.00 0.00 84 1014.9
20260502110821 52 302 0.0 0.0 0.00 0.00 0.00 85 1014.7
20260502105820 52 302 0.0 0.0 0.00 0.00 0.00 85 1014.9
20260502102817 53 302 0.0 0.0 0.00 0.00 0.00 84 1015.1
20260502100815 53 302 0.0 0.0 0.00 0.00 0.00 83 1014.5
20260502090809 54 302 0.0 0.0 0.00 0.00 0.00 83 1016.3
20260502070757 56 318 0.0 0.0 0.00 0.00 0.00 75 1015.7
20260502065756 56 319 0.0 0.0 0.00 0.00 0.00 74 1015.7
20260502064754 56 318 0.0 0.0 0.00 0.00 0.00 74 1015.7
20260502063754 57 321 0.0 0.0 0.00 0.00 0.00 74 1015.7
20260502062752 57 321 0.0 0.0 0.00 0.00 0.00 74 1015.7
20260502061751 58 321 0.0 0.0 0.00 0.00 0.00 74 1015.6
20260502055750 58 321 0.0 0.0 0.00 0.00 0.00 72 1015.5
20260502054749 58 323 0.0 0.0 0.00 0.00 0.00 72 1015.4
20260502053747 59 315 0.0 0.0 0.00 0.00 0.00 72 1015.3
20260502052746 59 319 0.0 0.0 0.00 0.00 0.00 71 1015.2
20260502051746 60 318 3.0 0.0 0.00 0.00 0.00 70 1015.2
20260502045744 61 305 0.0 0.0 0.00 0.00 0.00 69 1015.0
20260502044742 62 318 2.0 0.0 0.00 0.00 0.00 68 1015.0
20260502043741 62 322 0.0 0.0 0.00 0.00 0.00 67 1015.0
20260502042740 63 318 0.0 0.0 0.00 0.00 0.00 67 1014.8
20260502041739 64 318 0.0 0.0 0.00 0.00 0.00 66 1014.5
20260502040738 64 318 0.0 0.0 0.00 0.00 0.00 66 1014.4
20260502035738 65 306 0.0 0.0 0.00 0.00 0.00 64 1014.1
20260502034736 65 316 0.0 0.0 0.00 0.00 0.00 64 1013.9
20260502033735 66 341 0.0 0.0 0.00 0.00 0.00 63 1013.8
20260502032734 66 319 0.0 0.0 0.00 0.00 0.00 62 1013.7
20260502031734 67 329 0.0 0.0 0.00 0.00 0.00 62 1013.6
20260502030732 68 324 0.0 0.0 0.00 0.00 0.00 62 1013.5
20260502025732 68 324 0.0 0.0 0.00 0.00 0.00 61 1013.3
20260502024730 69 322 0.0 0.0 0.00 0.00 0.00 60 1013.1
20260502021727 71 319 2.0 0.0 0.00 0.00 0.00 56 1012.7
20260502020726 71 327 0.0 0.0 0.00 0.00 0.00 55 1012.7
20260502014724 73 308 0.0 0.0 0.00 0.00 0.00 55 1012.5
20260502013723 74 329 0.0 0.0 0.00 0.00 0.00 56 1012.6
20260502012722 74 308 0.0 0.0 0.00 0.00 0.00 53 1012.6
20260502011721 75 320 2.0 0.0 0.00 0.00 0.00 53 1012.5
20260502010720 75 314 0.0 0.0 0.00 0.00 0.00 51 1012.4
20260502005719 76 315 8.0 0.0 0.00 0.00 0.00 50 1012.4
20260502004718 77 321 0.0 0.0 0.00 0.00 0.00 46 1012.4
20260502003717 78 323 0.0 0.0 0.00 0.00 0.00 44 1012.5
20260502002716 79 318 0.0 0.0 0.00 0.00 0.00 39 1012.3
20260502001715 80 322 0.0 0.0 0.00 0.00 0.00 39 1012.5
20260501234712 79 316 0.0 0.0 0.00 0.00 0.00 41 1012.4
20260501233711 79 316 0.0 0.0 0.00 0.00 0.00 43 1012.6
20260501231709 78 150 0.0 0.0 0.00 0.00 0.00 47 1012.7
20260501230708 78 328 3.0 0.0 0.00 0.00 0.00 45 1012.9
20260501224706 77 215 3.0 0.0 0.00 0.00 0.00 46 1013.1
20260501222704 77 144 0.0 0.0 0.00 0.00 0.00 48 1013.4
20260501221703 77 347 0.0 0.0 0.00 0.00 0.00 48 1013.4